This demonstration page uses our WeatherBlox Daily Observations layout. Learn more.

Left ArrowRight Arrow

39.92423, -83.80882

Hourly Observations for November 29, 2020

Temp ( °F °C ) Dew Point ( °F °C ) Humidity (%) Winds ( mph kmh ) Pressure ( in mb ) Visibility ( mi km ) Precip ( " mm )
12:56 am 00:56 Clear 34 1.1 29 -1.7 82 82 SSW 5 7 30.16 1021 10 16 N/A
1:56 am 01:56 Clear 27 -2.8 27 -2.8 100 100 SSE 3 6 30.15 1021 10 16 N/A
2:56 am 02:56 Clear 27 -2.8 27 -2.8 100 100 N N/A 30.16 1021 8 13 N/A
3:56 am 03:56 Clear 27 -2.8 27 -2.8 100 100 N N/A 30.16 1021 9 14 N/A
4:56 am 04:56 Clear 25 -3.9 25 -3.9 100 100 N N/A 30.16 1021 8 13 N/A
5:56 am 05:56 Clear 30 -1.1 28 -2.2 92 92 S 5 7 30.16 1021 10 16 N/A
6:56 am 06:56 Clear 30 -1.1 27 -2.8 88 88 SSE 5 7 30.16 1021 10 16 N/A
7:56 am 07:56 Sunny 25 -3.9 25 -3.9 100 100 ESE 3 6 30.17 1022 8 13 N/A
8:56 am 08:56 Sunny 31 -0.6 31 -0.6 100 100 N N/A 30.15 1021 8 13 N/A
9:56 am 09:56 Sunny 41 5 34 1.1 76 76 SSW 5 7 30.14 1021 10 16 N/A
10:56 am 10:56 Sunny 46 7.8 32 undefined 58 58 S 8 13 30.11 1020 10 16 N/A
11:56 am 11:56 Sunny 48 8.9 32 undefined 54 54 S 6 9 30.06 1018 10 16 N/A
12:56 pm 12:56 Sunny 50 10 29 -1.7 44 44 SSW 7 11 30.03 1017 10 16 N/A
1:56 pm 13:56 Sunny 52 11.1 32 undefined 47 47 S 8 13 30.02 1017 10 16 N/A
2:56 pm 14:56 Sunny 52 11.1 27 -2.8 38 38 S 5 7 29.98 1015 10 16 N/A
3:56 pm 15:56 Sunny 51 10.6 29 -1.7 43 43 SSE 6 9 29.97 1015 10 16 N/A
4:56 pm 16:56 Sunny 46 7.8 32 undefined 58 58 SE 6 9 29.96 1014 10 16 N/A
5:56 pm 17:56 Clear 46 7.8 35 1.7 66 66 SSE 6 9 29.94 1014 10 16 N/A
6:56 pm 18:56 Mostly Clear 43 6.1 34 1.1 71 71 N N/A 29.93 1014 10 16 N/A
7:56 pm 19:56 Mostly Clear 43 6.1 34 1.1 71 71 N N/A 29.93 1014 10 16 N/A
8:56 pm 20:56 Clear 41 5 35 1.7 79 79 N N/A 29.90 1013 10 16 N/A
9:56 pm 21:56 Partly Cloudy 41 5 37 2.8 86 86 NNW 3 6 29.87 1011 10 16 N/A
10:56 pm 22:56 Mostly Clear 41 5 37 2.8 86 86 N N/A 29.84 1010 10 16 N/A
11:31 pm 23:31 Cloudy 41 5 37 3 87 87 N N/A 29.84 1011 10 16 N/A
11:42 pm 23:42 Cloudy 41 5 37 3 87 87 NNE 5 7 29.83 1010 10 16 N/A
11:56 pm 23:56 Cloudy 41 5 37 2.8 86 86 ENE 3 6 29.81 1010 10 16 N/A

Powered by AerisWeather